Tracking 20942 objects as of 14-Jul-2020
HD Live streaming from Space Station
objects crossing your sky now

GEO IK

Track GEO IK now!
10-day predictions
GEO IK is classified as:


NORAD ID: 23411
Int'l Code: 1994-078A
Perigee: 1,487.1 km
Apogee: 1,533.4 km
Inclination: 73.6 °
Period: 116.1 minutes
Semi major axis: 7881 km
RCS: 11.135 m2 (large)
Launch date: November 29, 1994
Source: Commonwealth of Independent States (former USSR) (CIS)
Launch site: PLESETSK MISSILE AND SPACE COMPLEX (PKMTR)
aabbcc
Your satellite tracking list
Your tracking list is empty




NASA's NSSDC Master Catalog

Two Line Element Set (TLE):
1 23411U 94078A   20195.73366399 -.00000004 +00000-0 +98539-4 0  9995
2 23411 073.6113 184.6590 0029337 211.7381 321.7065 12.40823623160578
Source of the keplerian elements: AFSPC